Bedford Park, IL

4:02 AM CST on February 06, 2016 (GMT -0600)
Chicago-Midway

Weather History for KMDW - March, 2014

Change the Weather History Date:

Tuesday, March 4, 2014

  Actual Average Record
Temperature  
Mean Temperature 20 °F 34 °F  
Max Temperature 27 °F 42 °F 74 °F (1983)
Min Temperature 12 °F 27 °F -4 °F (2002)
Degree Days  
Heating Degree Days 45 31  
Month to date heating degree days 196 125  
Since 1 July heating degree days 5398 4636  
Cooling Degree Days 0 0  
Month to date cooling degree days 0 0  
Year to date cooling degree days 0 0  
Moisture  
Dew Point 6 °F    
Average Humidity 55    
Maximum Humidity 67    
Minimum Humidity 30    
Precipitation  
Precipitation T in 0.08 in 1.42 in (1985)
Month to date precipitation T 0.34  
Year to date precipitation 2.49 4.34  
Snow  
Snow 0.00 in - - ()
Snow Depth 2.00 in    
Sea Level Pressure  
Sea Level Pressure 30.31 in    
Wind  
Wind Speed 7 mph (SW)    
Max Wind Speed 12 mph    
Max Gust Speed 14 mph    
Visibility 10 miles    
Events Snow    
T = Trace of Precipitation, MM = Missing Value Source: NWS Daily Summary

Daily Weather History Graph

Daily Weather History Graph

Search for Another Location

Airport or City:

Trip Planner

Search our weather history database for the weather conditions in past years. The results will help you decide how hot, cold, wet, or windy it might be!

Date:

Astronomy

Mar. 04, 2014 Rise Set
Actual Time 6:21 AM CST 5:44 PM CST
Civil Twilight 5:53 AM CST 6:12 PM CST
Nautical Twilight 5:21 AM CST 6:45 PM CST
Astronomical Twilight 4:48 AM CST 7:17 PM CST
Moon 8:03 AM CST (3/4) 9:56 PM CST (3/4)
Length of Visible Light 12h 19m
Length of Day
11h 23m
Waxing Crescent, 15% of the Moon is Illuminated
Mar 4
Waxing Crescent
Mar 8
First Quarter
Mar 16
Full
Mar 23
Last Quarter
Mar 30
New

Hourly Weather History & Observations

Time (CST) Temp. Windchill Dew Point Humidity Pressure Visibility Wind Dir Wind Speed Gust Speed Precip Events Conditions
12:51 AM 12.9 °F 3.8 °F 1.9 °F 62% 30.43 in 10.0 mi West 5.8 mph - N/A   Overcast
1:51 AM 12.0 °F 5.9 °F 3.0 °F 67% 30.41 in 10.0 mi SW 3.5 mph - N/A   Overcast
2:51 AM 12.9 °F 6.9 °F 3.0 °F 65% 30.38 in 10.0 mi SSW 3.5 mph - N/A   Overcast
3:51 AM 12.9 °F 3.8 °F 3.9 °F 67% 30.38 in 10.0 mi South 5.8 mph - N/A   Overcast
4:51 AM 14.0 °F 5.1 °F 3.0 °F 62% 30.39 in 6.0 mi West 5.8 mph - 0.00 in Snow Light Snow
5:51 AM 14.0 °F 5.1 °F 3.9 °F 64% 30.38 in 10.0 mi South 5.8 mph - 0.00 in Snow Light Snow
6:51 AM 14.0 °F 0.5 °F 1.9 °F 59% 30.35 in 10.0 mi South 11.5 mph - 0.00 in   Overcast
7:51 AM 14.0 °F 2.9 °F 1.0 °F 56% 30.34 in 10.0 mi South 8.1 mph - N/A   Overcast
8:51 AM 14.0 °F 1.2 °F 1.9 °F 59% 30.33 in 10.0 mi South 10.4 mph - N/A   Overcast
9:51 AM 16.0 °F 2.9 °F 3.9 °F 59% 30.31 in 10.0 mi SSW 11.5 mph - N/A   Overcast
10:51 AM 19.0 °F 9.0 °F 6.1 °F 57% 30.31 in 10.0 mi SW 8.1 mph - N/A   Overcast
11:51 AM 21.0 °F 12.4 °F 5.0 °F 50% 30.29 in 10.0 mi SSW 6.9 mph - N/A   Overcast
12:51 PM 23.0 °F 13.9 °F 8.1 °F 53% 30.27 in 10.0 mi SSW 8.1 mph - N/A   Overcast
1:51 PM 24.1 °F 17.0 °F 10.0 °F 55% 30.25 in 10.0 mi SW 5.8 mph - N/A   Mostly Cloudy
2:51 PM 26.1 °F 16.8 °F 7.0 °F 44% 30.23 in 10.0 mi West 9.2 mph - N/A   Scattered Clouds
3:51 PM 27.0 °F 19.5 °F 5.0 °F 39% 30.23 in 10.0 mi West 6.9 mph - N/A   Partly Cloudy
4:51 PM 26.1 °F 19.4 °F 7.0 °F 44% 30.23 in 10.0 mi West 5.8 mph - N/A   Scattered Clouds
5:51 PM 26.1 °F 21.9 °F 6.1 °F 43% 30.25 in 10.0 mi West 3.5 mph - N/A   Partly Cloudy
6:51 PM 21.9 °F 15.7 °F 6.1 °F 51% 30.26 in 10.0 mi WSW 4.6 mph - N/A   Scattered Clouds
7:51 PM 24.1 °F 16.0 °F 10.9 °F 57% 30.26 in 10.0 mi ENE 6.9 mph - N/A   Scattered Clouds
8:51 PM 23.0 °F 14.7 °F 12.0 °F 63% 30.27 in 10.0 mi ENE 6.9 mph - N/A   Scattered Clouds
9:51 PM 23.0 °F 13.9 °F 10.9 °F 60% 30.28 in 10.0 mi ENE 8.1 mph - N/A   Mostly Cloudy
10:51 PM 23.0 °F 13.9 °F 12.0 °F 63% 30.29 in 10.0 mi ENE 8.1 mph - N/A   Scattered Clouds
11:51 PM 23.0 °F 13.9 °F 12.0 °F 63% 30.30 in 10.0 mi ENE 8.1 mph - N/A   Overcast